#timestamp,LO_Frequency,Hit,StdDev 
1546988415.1,286047002.4,P
1546988416.0,286047002.4,P
1546988435.8,286046998.6,P
1546988455.7,286046999.8,N
1546988475.5,286046999.4,N
1546988495.3,286047001.0,N
1546988515.2,286046999.2,N
1546988535.0,286046993.3,Y
1546988535.9,286046993.3,P
1546988555.8,286046992.5,N
1546988575.7,286046995.8,N
1546988595.5,286046994.0,N
1546988615.4,286046985.4,Y
1546988635.2,286046989.7,P
1546988655.0,286046992.2,N
1546988655.9,286046992.2,P
1546988675.8,286046999.1,N
1546988695.6,286047003.4,N
1546988715.5,286047005.9,N
1546988735.3,286046999.0,N
1546988755.1,286046995.6,N
1546988775.9,286046996.0,N
1546988795.7,286046994.4,N
1546988815.5,286046994.5,N
1546988835.4,286046996.5,N
1546988855.2,286046999.5,N
1546988875.1,286047000.7,N
1546988876.0,286047000.7,N
1546988895.8,286047002.8,N
1546988915.6,286047000.2,N
1546988935.5,286047001.2,N
1546988955.3,286047004.1,N
1546988975.1,286047009.1,N
1546988995.9,286047008.3,N
1546989015.7,286047006.4,N
1546989035.6,286047008.9,N
1546989055.4,286047009.4,N
1546989075.2,286047013.3,N
1546989095.1,286047013.8,N
1546989096.0,286047013.8,N
1546989115.8,286047009.8,N
1546989135.7,286047012.6,N
1546989155.5,286047016.5,N
1546989175.3,286047011.4,N
1546989195.2,286047011.9,N
1546989215.0,286047010.9,N
1546989215.9,286047010.9,N
1546989235.7,286047009.3,N
1546989255.6,286047011.4,N
1546989275.4,286047009.3,N
1546989295.3,286047015.1,N
1546989315.1,286047011.4,N
1546989316.0,286047011.4,N
1546989335.8,286047011.3,N
1546989355.7,286047011.4,N
1546989375.5,286047013.2,N
1546989395.4,286047015.2,Y
1546989415.2,286047005.6,P
1546989435.0,286047008.8,P
1546989435.9,286047008.8,P
1546989455.8,286047003.2,N
1546989475.6,286047003.7,N
1546989495.4,286047007.1,N
1546989515.3,286047005.6,N
1546989535.1,286047007.3,Y
1546989555.9,286046999.1,P
1546989575.7,286046997.8,N
1546989595.5,286046990.4,N
1546989615.4,286046991.9,N
1546989635.2,286046990.6,N
1546989655.0,286046991.8,N
1546989656.0,286046991.8,N
1546989675.8,286046996.2,N
1546989695.6,286046999.6,N
1546989715.5,286046995.1,N
1546989735.3,286046995.0,N
1546989755.1,286046998.5,N
1546989775.9,286047004.3,N
1546989795.7,286047001.9,N
1546989815.6,286047003.9,N
1546989835.4,286047003.4,N
1546989855.2,286047002.5,N
1546989875.1,286047002.2,N
1546989876.0,286047002.2,N
1546989895.8,286047006.9,N
1546989915.6,286047005.0,N
1546989935.5,286047005.9,N
1546989955.3,286047009.0,N
1546989975.2,286047003.4,N
1546989995.9,286047001.4,N
1546990015.7,286047002.6,N
1546990035.6,286047001.0,N
1546990055.4,286047004.1,N
1546990075.2,286047003.1,N
1546990095.1,286047001.5,N
1546990096.0,286047001.5,N
1546990115.8,286047001.9,N
1546990135.7,286047002.2,N
1546990155.5,286047000.6,N
1546990175.3,286047001.8,N
1546990195.2,286047002.7,N
1546990215.0,286047000.5,N
1546990215.9,286047000.5,N
1546990235.7,286047003.7,N
1546990255.6,286047000.5,N
1546990275.4,286047004.3,N
1546990295.3,286047005.3,N
1546990315.1,286047005.9,N
1546990316.0,286047005.9,N
1546990335.8,286047005.2,N
1546990355.7,286047005.1,N
1546990375.5,286047005.6,N
1546990395.3,286047004.0,N
1546990415.2,286047005.5,N
1546990435.0,286047003.1,N
1546990435.9,286047003.1,N
1546990485.8,286047001.0,E
1546990495.7,286046998.8,N
1546990515.6,286046997.3,P
1546990535.4,286047000.3,N
1546990555.2,286046997.9,N
1546990575.1,286046993.9,Y
1546990576.0,286046993.9,P
1546990595.8,286046995.2,N
1546990615.7,286046997.6,N
1546990635.5,286046993.7,Y
1546990655.3,286046995.1,P
1546990675.2,286046997.0,P
1546990695.0,286046998.7,N
1546990695.9,286046998.7,N
1546990715.7,286046996.5,N
1546990735.6,286046997.1,N
1546990755.4,286047000.2,N
1546990775.3,286047002.7,N
1546990795.1,286047000.5,N
1546990796.0,286047000.5,N
1546990815.8,286046998.3,N
1546990835.7,286046998.8,N
1546990855.5,286047002.7,N
1546990875.3,286047001.3,N
1546990895.2,286047003.4,N
1546990915.0,286047005.9,N
1546990915.9,286047005.9,N
1546990935.8,286047005.5,N
1546990955.6,286047011.8,Y
1546990975.4,286047022.8,P
1546990995.3,286047021.7,N
1546991015.1,286047023.7,N
1546991035.8,286047028.0,N
1546991055.7,286047026.5,N
1546991075.5,286047022.5,N
1546991095.4,286047021.8,N
1546991115.2,286047019.8,N
1546991135.0,286047019.8,N
1546991135.9,286047019.8,N
1546991155.8,286047021.9,Y
1546991175.6,286046998.8,P
1546991195.5,286047000.4,N
1546991215.3,286046996.0,N
1546991235.1,286046995.1,N
1546991255.9,286046990.8,N
1546991275.7,286046990.3,N
1546991295.5,286046992.7,N
1546991315.4,286046995.0,N
1546991335.2,286046998.5,N
1546991355.1,286047001.1,N
1546991356.0,286047001.1,N
1546991375.8,286046999.2,N
1546991395.6,286046996.7,N
1546991415.5,286046992.2,N
1546991435.3,286046988.5,N
1546991455.1,286046988.4,N
1546991475.9,286046986.2,N
1546991495.7,286046991.1,N
1546991515.6,286046995.6,N
1546991535.4,286046997.0,N
1546991555.2,286047000.3,N
1546991575.1,286047001.1,N
1546991576.0,286047001.1,N
1546991595.8,286046993.6,N
1546991615.6,286046991.8,N
1546991635.5,286046996.3,N
1546991655.3,286046994.8,N
1546991675.2,286046996.8,N
1546991695.9,286046998.3,N
1546991715.7,286046995.4,N
1546991735.6,286046999.1,N
1546991755.4,286046995.1,N
1546991775.3,286046994.1,N
1546991795.1,286046993.0,N
1546991796.0,286046993.0,N
1546991815.8,286046990.3,N
1546991835.7,286046992.1,N
1546991855.5,286046996.5,N
1546991875.3,286046997.9,N
1546991895.2,286046995.8,N
1546991915.0,286046998.4,N
1546991915.9,286046998.4,N
1546991935.8,286047000.4,N
1546991955.6,286047001.3,N
1546991975.4,286047010.1,N
1546991995.3,286047017.9,Y
